RH
49 50 49 48 49 50 51 54 50 46 44 40 37 30 28 28 26 28 34 35 40 45 44 31 20 13 12 22 35 35 19 18 27 52 50 40 32 25 22 15 14 14 14
49 49 48 47 50 49 47 51 52 49 48 44 42 40 31 29 28 32 38 38 44 51 39 29 20 16 24 21 25 27 21 32 35 38 38 33 27 18 15 15 15 15 15
46 46 47 46 46 47 48 49 49 48 48 47 50 43 33 31 30 32 40 43 44 49 42 29 20 15 16 17 17 19 18 33 34 33 32 26 20 15 15 16 16 17 17
45 45 46 47 44 45 46 48 50 47 44 45 44 44 36 35 32 31 39 46 45 45 42 32 23 18 14 16 15 18 25 30 33 32 26 20 14 14 15 16 17 18 18
42 44 45 48 44 49 50 49 49 47 47 44 45 49 40 39 37 36 40 43 42 43 41 36 29 24 19 17 19 22 25 25 22 23 21 16 14 13 14 16 17 18 18
42 41 45 50 51 48 53 50 50 50 49 44 44 48 45 39 36 37 39 42 41 42 39 38 36 33 28 24 22 19 18 17 18 19 19 17 15 15 14 14 15 17 17
41 41 40 49 58 55 56 58 56 56 51 49 47 44 47 44 46 44 46 47 45 40 40 40 39 39 38 32 27 22 20 16 16 16 16 17 16 16 16 15 15 16 16
41 41 43 42 48 54 57 58 58 60 62 56 51 46 43 45 50 57 65 65 62 52 44 43 41 42 43 42 36 32 25 21 19 18 16 16 16 17 17 17 17 18 18
31 38 41 46 49 59 57 55 56 58 62 56 51 47 45 43 45 51 56 65 69 70 55 47 45 44 44 42 43 41 34 29 23 21 20 19 18 17 16 15 16 16 17
29 30 38 41 46 55 58 55 55 56 58 56 53 46 43 45 43 45 48 50 61 72 71 54 47 46 46 45 41 40 41 36 33 29 25 22 21 20 18 17 17 16 16
17 23 31 32 40 44 48 51 51 55 54 52 49 48 45 43 45 46 43 44 47 55 67 68 52 51 52 47 44 41 39 39 37 37 36 33 31 29 26 23 21 20 20
17 16 16 25 32 39 44 45 48 51 50 49 48 48 48 47 45 49 49 47 50 52 57 68 66 53 52 53 49 45 42 41 40 39 39 40 41 41 40 40 39 36 34
18 17 16 16 18 28 34 39 46 46 47 48 48 48 47 46 44 54 55 57 54 53 56 61 68 67 56 52 51 52 49 47 46 45 44 44 45 45 44 45 43 43 43
12 12 11 11 11 12 15 24 30 33 39 42 45 51 48 49 49 52 56 59 59 59 55 56 61 65 69 61 57 55 53 53 53 52 50 48 49 50 49 51 51 50 49
11 11 11 10 10 10 10 10 13 20 28 32 38 40 42 46 51 54 55 58 60 61 60 59 56 58 62 68 66 62 57 58 57 56 56 56 55 55 55 54 57 56 55
12 12 12 13 13 13 12 12 11 11 13 20 29 35 42 44 49 53 56 60 64 65 66 69 68 69 69 72 75 74 66 62 60 61 66 65 63 60 58 58 58 57 55
16 16 16 16 16 16 16 16 15 14 14 13 15 27 34 41 46 51 56 60 57 67 80 83 85 81 78 76 73 74 75 72 68 70 74 74 73 74 71 70 69 66 60
19 19 19 20 20 20 20 19 19 18 17 16 15 15 28 38 41 45 48 52 58 67 76 83 85 84 83 80 79 79 80 78 77 75 76 79 80 83 82 77 72 67 62
23 23 22 22 21 21 21 21 21 21 19 18 17 16 16 26 39 42 44 50 58 62 68 78 82 80 81 78 78 79 80 80 86 86 87 87 87 86 83 74 67 60 53
26 24 24 24 24 23 23 23 21 20 20 19 18 18 17 16 24 42 44 48 53 62 66 69 72 75 73 74 73 74 80 88 93 93 93 92 89 84 75 64 60 61 61
28 26 25 24 24 24 24 24 24 23 23 22 21 18 18 18 18 24 43 42 53 60 63 63 67 74 78 78 76 70 68 77 87 89 94 89 84 73 68 58 55 55 56
29 28 28 28 28 28 27 27 26 26 25 26 27 25 20 18 17 17 24 43 48 57 67 65 69 72 79 80 79 75 73 72 75 81 85 82 75 72 61 54 50 49 53
30 31 32 33 33 34 35 32 32 33 33 33 35 35 34 29 24 21 18 22 39 50 61 72 70 75 76 74 78 87 83 77 76 73 70 70 69 62 50 44 45 48 46
35 36 38 40 43 47 44 41 40 42 44 48 50 49 46 43 36 28 25 21 23 32 54 53 71 75 78 76 83 90 90 86 82 76 70 67 60 50 46 47 49 47 44
42 43 45 45 42 42 44 45 43 45 48 51 54 53 54 55 50 42 35 34 30 25 28 55 55 69 77 80 86 93 90 89 87 82 75 65 54 52 51 51 49 44 46
49 48 45 43 44 47 52 57 57 53 53 55 57 60 62 61 57 51 47 42 39 35 28 39 59 65 80 88 91 95 96 96 90 85 80 72 61 57 52 49 45 50 60